[[{"header":{"parameterUnit":"m.s-1","parameterCategory":1,"la1":30.2991,"la2":30.254,"lo1":-89.0895,"lo2":-89.0444,"dy":0.0017,"dx":0.0017,"nx":28,"ny":28,"refTime":"2025-08-23T03:00:00:Z","depth":0,"parameterNumber":2,"parameterNumberName":"U-component_of_WINDS"},"data":[0,0,0,0,0,0,0,0,0,0,0,0,0,0,0,0,0,0,0,0,0,0,0,0,0,0,0,0,0,0,0,0,0,0,0,0,0,0,0,0,0,0,0,0,0,0,0,0,0,0,0,0,0,0,0,0,0,0,-1.1515,-1.1516,0,-1.1635,-1.1636,-1.1637,-1.1654,-1.1652,-1.1651,-1.165,-1.1774,-1.1779,-1.1783,0,0,0,0,0,0,0,0,0,0,0,0,0,-1.13,-1.1304,-1.1515,-1.1516,-1.1518,-1.1634,-1.1636,-1.1638,-1.1654,-1.1652,-1.1651,-1.165,-1.1773,-1.1778,-1.1783,0,0,0,0,0,0,0,0,0,0,0,0,0,-1.1404,-1.1305,-1.1514,-1.154,-1.1543,-1.1634,-1.1636,-1.1638,-1.1654,-1.1652,-1.1651,-1.1649,-1.1771,-1.1778,-1.1784,-1.1859,0,0,-1.1804,-1.1807,0,0,0,0,0,0,0,0,-1.1398,-1.1412,-1.1534,-1.1538,-1.1542,-1.1627,-1.1606,-1.1712,-1.1654,-1.1612,-1.165,-1.1648,-1.1727,-1.1737,-1.1763,-1.1864,-1.187,-1.1805,-1.1809,-1.1811,-1.1813,0,0,0,0,0,0,0,-1.1391,-1.1407,-1.1562,-1.1536,-1.1541,-1.1545,-1.1558,-1.1626,-1.1678,-1.1616,-1.1617,-1.1631,-1.1729,-1.1757,-1.1766,-1.1872,-1.1805,-1.181,-1.1814,-1.1817,-1.204,-1.2042,0,0,0,0,0,0,-1.1379,-1.1401,-1.1558,-1.1566,-1.1464,-1.1551,-1.1565,-1.1602,-1.1677,-1.1687,-1.1632,-1.1631,-1.1747,-1.1759,-1.1771,-1.1863,-1.1811,-1.1818,-1.1821,-1.2038,-1.204,-1.2042,0,0,0,0,0,0,-1.1374,-1.1393,-1.1554,-1.1484,-1.1505,-1.1556,-1.1597,-1.1605,-1.1633,-1.169,-1.1699,-1.1652,-1.1746,-1.1762,-1.1837,-1.1867,-1.1821,-1.1826,-1.2035,-1.2038,-1.2041,-1.2048,0,0,0,0,0,0,-1.1368,-1.1391,-1.142,-1.1484,-1.1508,-1.1617,-1.1599,-1.1609,-1.1644,-1.1644,-1.171,-1.172,-1.1746,-1.1827,-1.1843,-1.1876,-1.1832,-1.2033,-1.2037,-1.204,-1.2045,-1.2051,-1.2055,0,0,0,0,0,-1.136,-1.1417,-1.1421,-1.144,-1.1545,-1.1619,-1.1633,-1.1661,-1.1647,-1.1676,-1.1712,-1.1717,-1.1861,-1.1834,-1.1853,-1.1888,-1.2031,-1.2036,-1.204,-1.2043,-1.2049,-1.2055,0,0,0,0,0,0,-1.1356,-1.1426,-1.1431,-1.1511,-1.1559,-1.1621,-1.1659,-1.1667,-1.1721,-1.1718,-1.1752,-1.1767,-1.184,-1.1872,-1.184,-1.1964,-1.1945,-1.1953,-1.1941,-1.1948,-1.1953,-1.1944,-1.1837,0,0,0,0,0,-1.1364,-1.1417,-1.1476,-1.1541,-1.1564,-1.1608,-1.1641,-1.1659,-1.171,-1.173,-1.1772,-1.1821,-1.1878,-1.1914,-1.1969,-1.2049,-1.2064,-1.2083,-1.2088,-1.2092,-1.2099,-1.2143,-1.2152,-1.2057,-1.2057,-1.2057,0,0,-1.1381,-1.1426,-1.1458,-1.1541,-1.158,-1.1635,-1.1625,-1.1683,-1.1725,-1.1739,-1.1812,-1.1845,-1.1902,-1.198,-1.2016,-1.2008,-1.2128,-1.2097,-1.21,-1.2105,-1.2149,-1.2158,-1.2165,-1.206,-1.2059,-1.2059,0,0,-1.1441,-1.1481,-1.1539,-1.1578,-1.1637,-1.1666,-1.1679,-1.1741,-1.1763,-1.1836,-1.1849,-1.1898,-1.1995,-1.2035,-1.2068,-1.2143,-1.215,-1.216,-1.2187,-1.223,-1.2237,-1.2244,-1.2271,-1.228,-1.2167,-1.2167,-1.2167,0,-1.1456,-1.1539,-1.1567,-1.1626,-1.1662,-1.1677,-1.1736,-1.1773,-1.1847,-1.1871,-1.1861,-1.1982,-1.2022,-1.2109,-1.2128,-1.2154,-1.2171,-1.2153,-1.2234,-1.2241,-1.2248,-1.2274,-1.2284,-1.2168,-1.2167,-1.2167,-1.2167,0,-1.1554,-1.1611,-1.1651,-1.1722,-1.1762,-1.182,-1.1858,-1.1895,-1.1909,-1.1938,-1.2013,-1.2062,-1.2127,-1.2148,-1.2163,-1.2238,-1.2231,-1.2227,-1.2209,-1.2257,-1.2282,-1.2292,-1.2169,-1.2168,-1.2168,-1.2168,0,0,-1.1615,-1.17,-1.1714,-1.1746,-1.1812,-1.1858,-1.1916,-1.1979,-1.2011,-1.2061,-1.2112,-1.2193,-1.2189,-1.2227,-1.2246,-1.2284,-1.2339,-1.2275,-1.2277,-1.2285,-1.2424,-1.2427,-1.2438,-1.2344,-1.2346,-1.2347,-1.242,0,-1.1683,-1.1788,-1.1815,-1.1904,-1.1958,-1.1972,-1.2024,-1.207,-1.2099,-1.2148,-1.218,-1.2237,-1.2228,-1.2251,-1.2289,-1.2324,-1.2368,-1.232,-1.2391,-1.2393,-1.2376,-1.2451,-1.2454,-1.252,-1.2429,-1.2431,-1.2432,0,-1.1776,-1.1828,-1.1922,-1.1981,-1.2005,-1.205,-1.211,-1.2157,-1.221,-1.2228,-1.2269,-1.2285,-1.2347,-1.2325,-1.2411,-1.2377,-1.2408,-1.243,-1.2433,-1.2441,-1.2416,-1.2461,-1.2541,-1.2551,-1.2448,-1.2447,-1.2445,0,-1.1811,-1.1905,-1.1973,-1.2,-1.2071,-1.2102,-1.2133,-1.2184,-1.222,-1.2272,-1.2296,-1.2354,-1.2387,-1.2432,-1.2463,-1.2444,-1.2546,-1.2527,-1.2563,-1.2562,-1.2584,-1.2582,-1.2671,-1.2604,-1.2603,-1.2603,-1.2603,0,-1.1884,-1.1941,-1.199,-1.2032,-1.2097,-1.2127,-1.219,-1.2222,-1.2267,-1.2315,-1.2332,-1.2377,-1.2415,-1.2465,-1.249,-1.2557,-1.2572,-1.2588,-1.2594,-1.2587,-1.2585,-1.2608,-1.2604,-1.2606,-1.2605,-1.2605,-1.2604,0,-1.1934,-1.1969,-1.2045,-1.2105,-1.2121,-1.2166,-1.2218,-1.2259,-1.2288,-1.235,-1.2366,-1.2411,-1.2472,-1.2507,-1.2583,-1.2599,-1.2674,-1.2678,-1.2656,-1.2659,-1.2693,-1.2689,-1.2799,-1.2815,-1.2737,-1.2738,-1.2739,0,-1.1979,-1.2023,-1.2088,-1.2121,-1.2152,-1.2206,-1.2243,-1.2274,-1.2312,-1.2374,-1.2408,-1.2469,-1.252,-1.2616,-1.2656,-1.2714,-1.2719,-1.2754,-1.2728,-1.2719,-1.272,-1.2717,-1.2721,-1.2758,-1.2759,-1.276,-1.276,0,-1.2054,-1.2069,-1.212,-1.2178,-1.2221,-1.2269,-1.2315,-1.2342,-1.2382,-1.2423,-1.2484,-1.2523,-1.2601,-1.2661,-1.2722,-1.2754,-1.2764,-1.2768,-1.2779,-1.2772,-1.2758,-1.2766,-1.2668,-1.2765,-1.2765,-1.2764,-1.2764,-1.2764,-1.2103,-1.2143,-1.2194,-1.2251,-1.229,-1.2333,-1.2375,-1.2409,-1.246,-1.2525,-1.2541,-1.2606,-1.2657,-1.274,-1.2773,-1.2824,-1.2819,-1.2835,-1.2839,-1.2843,-1.2844,-1.2749,-1.2836,-1.2836,-1.2835,-1.2835,-1.2835,0,-1.2179,-1.2212,-1.2264,-1.2329,-1.2374,-1.2378,-1.243,-1.2468,-1.2524,-1.2571,-1.262,-1.269,-1.2749,-1.2793,-1.2853,-1.2885,-1.2891,-1.29,-1.2898,-1.2905,-1.2846,-1.283,-1.2894,-1.2894,-1.2894,-1.2894,-1.2894,-1.2894,-1.2223,-1.2291,-1.2312,-1.2398,-1.2432,-1.2495,-1.2524,-1.2564,-1.2601,-1.2679,-1.2728,-1.2756,-1.2802,-1.2865,-1.2919,-1.293,-1.2952,-1.296,-1.2972,-1.2916,-1.2909,-1.2903,-1.2889,-1.2964,-1.2964,-1.3027,-1.3028,-1.3028]},{"header":{"parameterUnit":"m.s-1","parameterCategory":1,"la1":30.2991,"la2":30.254,"lo1":-89.0895,"lo2":-89.0444,"dy":0.0017,"dx":0.0017,"nx":28,"ny":28,"refTime":"2025-08-23T03:00:00:Z","depth":0,"parameterNumber":3,"parameterNumberName":"V-component_of_WINDS"},"data":[0,0,0,0,0,0,0,0,0,0,0,0,0,0,0,0,0,0,0,0,0,0,0,0,0,0,0,0,0,0,0,0,0,0,0,0,0,0,0,0,0,0,0,0,0,0,0,0,0,0,0,0,0,0,0,0,0,0,-3.0974,-3.0973,0,-3.0888,-3.0887,-3.0886,-3.076,-3.0758,-3.0756,-3.0753,-3.0664,-3.0664,-3.0664,0,0,0,0,0,0,0,0,0,0,0,0,0,-3.1027,-3.1027,-3.0974,-3.0973,-3.0972,-3.0888,-3.0887,-3.0886,-3.076,-3.0758,-3.0755,-3.0752,-3.0664,-3.0664,-3.0664,0,0,0,0,0,0,0,0,0,0,0,0,0,-3.0979,-3.1027,-3.0974,-3.0899,-3.0891,-3.0889,-3.0887,-3.0886,-3.0761,-3.0758,-3.0754,-3.0751,-3.0665,-3.0664,-3.0664,-3.0727,0,0,-3.0662,-3.0662,0,0,0,0,0,0,0,0,-3.0982,-3.0977,-3.0911,-3.0904,-3.0896,-3.0831,-3.0873,-3.0832,-3.0762,-3.081,-3.0753,-3.075,-3.0722,-3.0717,-3.0708,-3.0723,-3.0719,-3.0662,-3.0662,-3.0662,-3.0662,0,0,0,0,0,0,0,-3.0986,-3.098,-3.094,-3.091,-3.0901,-3.0869,-3.0859,-3.0865,-3.0786,-3.0806,-3.0797,-3.0788,-3.0718,-3.0709,-3.0705,-3.0718,-3.0662,-3.0662,-3.0661,-3.0661,-3.078,-3.0784,0,0,0,0,0,0,-3.1,-3.0984,-3.0942,-3.0937,-3.0932,-3.0871,-3.0859,-3.0855,-3.0786,-3.0772,-3.0791,-3.0783,-3.0711,-3.0706,-3.0702,-3.0772,-3.0662,-3.0661,-3.0661,-3.0777,-3.0781,-3.0785,0,0,0,0,0,0,-3.1002,-3.0998,-3.0946,-3.0958,-3.0949,-3.0874,-3.087,-3.0855,-3.0847,-3.0774,-3.076,-3.0797,-3.0709,-3.0702,-3.0722,-3.0767,-3.0661,-3.0661,-3.0773,-3.0778,-3.0783,-3.0912,0,0,0,0,0,0,-3.1004,-3.0999,-3.1023,-3.096,-3.0949,-3.0969,-3.0873,-3.0856,-3.0846,-3.0834,-3.0776,-3.0763,-3.0706,-3.0723,-3.0721,-3.0764,-3.066,-3.0768,-3.0775,-3.0781,-3.0904,-3.0921,-3.0936,0,0,0,0,0,-3.1006,-3.1062,-3.1024,-3.102,-3.0977,-3.0971,-3.0965,-3.0898,-3.085,-3.0873,-3.0827,-3.0765,-3.0762,-3.0726,-3.0723,-3.0767,-3.0765,-3.0773,-3.0781,-3.0896,-3.0918,-3.0936,0,0,0,0,0,0,-3.1132,-3.1052,-3.101,-3.1047,-3.1017,-3.095,-3.0977,-3.0923,-3.0906,-3.0895,-3.0812,-3.08,-3.083,-3.08,-3.0762,-3.0824,-3.0754,-3.0762,-3.0843,-3.0863,-3.0879,-3.0886,-3.066,0,0,0,0,0,-3.1164,-3.1166,-3.1096,-3.1136,-3.1123,-3.1053,-3.1048,-3.0999,-3.0965,-3.0951,-3.0906,-3.0875,-3.0866,-3.0863,-3.0851,-3.0899,-3.0884,-3.0927,-3.0943,-3.0957,-3.0965,-3.0988,-3.1006,-3.081,-3.081,-3.081,0,0,-3.123,-3.1187,-3.1193,-3.116,-3.1131,-3.1136,-3.1043,-3.1051,-3.1054,-3.0952,-3.0968,-3.0935,-3.0894,-3.0928,-3.094,-3.0903,-3.1015,-3.0967,-3.0978,-3.0978,-3.0998,-3.1016,-3.1033,-3.0815,-3.0815,-3.0814,0,0,-3.1353,-3.132,-3.135,-3.1323,-3.128,-3.1234,-3.1241,-3.1182,-3.1156,-3.1171,-3.1095,-3.1097,-3.1084,-3.1059,-3.1044,-3.1158,-3.11,-3.1157,-3.1242,-3.1266,-3.1281,-3.1294,-3.1336,-3.1352,-3.1164,-3.1165,-3.1165,0,-3.144,-3.1444,-3.1372,-3.1385,-3.1373,-3.1282,-3.1311,-3.1288,-3.1245,-3.1238,-3.1197,-3.1181,-3.1147,-3.1174,-3.1202,-3.1193,-3.1199,-3.1163,-3.1285,-3.1297,-3.1309,-3.1347,-3.1363,-3.1172,-3.1171,-3.117,-3.117,0,-3.1554,-3.1558,-3.1587,-3.1548,-3.1538,-3.156,-3.1491,-3.149,-3.1443,-3.14,-3.1417,-3.1373,-3.1351,-3.1354,-3.1307,-3.1375,-3.1353,-3.13,-3.1228,-3.1336,-3.1371,-3.1385,-3.1182,-3.1179,-3.1177,-3.1176,0,0,-3.1753,-3.1674,-3.1686,-3.1668,-3.1614,-3.1616,-3.1633,-3.1613,-3.1614,-3.1587,-3.16,-3.1592,-3.1543,-3.1526,-3.1475,-3.1496,-3.159,-3.144,-3.1438,-3.147,-3.1663,-3.1704,-3.1722,-3.1552,-3.1554,-3.1556,-3.1667,0,-3.1866,-3.1892,-3.1828,-3.1869,-3.1872,-3.1786,-3.1801,-3.177,-3.1731,-3.1728,-3.1684,-3.168,-3.1615,-3.1604,-3.1621,-3.1576,-3.1628,-3.1566,-3.1563,-3.1563,-3.1576,-3.174,-3.1783,-3.189,-3.168,-3.1682,-3.1684,0,-3.2001,-3.1982,-3.2024,-3.1969,-3.1968,-3.1983,-3.1959,-3.1957,-3.192,-3.189,-3.1873,-3.1814,-3.1827,-3.1758,-3.1775,-3.1734,-3.1729,-3.1706,-3.1709,-3.1706,-3.1631,-3.1743,-3.1922,-3.1939,-3.1704,-3.1702,-3.1701,0,-3.2143,-3.2128,-3.2151,-3.2138,-3.2074,-3.2087,-3.2061,-3.2021,-3.2013,-3.1992,-3.1986,-3.1967,-3.1957,-3.1943,-3.1881,-3.1836,-3.1905,-3.1831,-3.1881,-3.1883,-3.19,-3.19,-3.2082,-3.1896,-3.1895,-3.1895,-3.1895,0,-3.2276,-3.2306,-3.2214,-3.2229,-3.226,-3.2186,-3.2218,-3.2183,-3.2148,-3.2154,-3.2078,-3.2085,-3.2002,-3.2,-3.1951,-3.1973,-3.1969,-3.1945,-3.1931,-3.1952,-3.1955,-3.1948,-3.1939,-3.1899,-3.1898,-3.1897,-3.1897,0,-3.244,-3.238,-3.24,-3.2339,-3.2324,-3.235,-3.2296,-3.2307,-3.2263,-3.2272,-3.227,-3.2201,-3.2195,-3.2132,-3.2111,-3.2078,-3.2119,-3.2091,-3.2132,-3.2124,-3.2178,-3.2174,-3.2362,-3.2383,-3.2183,-3.2185,-3.2187,0,-3.253,-3.255,-3.2491,-3.249,-3.2468,-3.2468,-3.2459,-3.2387,-3.2382,-3.2342,-3.2358,-3.2346,-3.2332,-3.2327,-3.2274,-3.2259,-3.223,-3.2297,-3.2227,-3.2248,-3.2232,-3.2232,-3.2234,-3.2312,-3.2315,-3.2317,-3.2318,0,-3.2695,-3.2664,-3.2655,-3.2637,-3.263,-3.2611,-3.2588,-3.2592,-3.2512,-3.251,-3.2503,-3.2493,-3.2473,-3.2462,-3.2437,-3.2409,-3.2352,-3.2341,-3.2352,-3.2373,-3.2397,-3.2386,-3.2173,-3.2337,-3.2335,-3.2334,-3.2333,-3.2332,-3.2824,-3.2839,-3.28,-3.2793,-3.2769,-3.2749,-3.2757,-3.2714,-3.2708,-3.2686,-3.2644,-3.2644,-3.2606,-3.2567,-3.2544,-3.2543,-3.2508,-3.2524,-3.2528,-3.2533,-3.2545,-3.2397,-3.2538,-3.2538,-3.2537,-3.2536,-3.2536,0,-3.2986,-3.2957,-3.2951,-3.2922,-3.2917,-3.2863,-3.2835,-3.2834,-3.2835,-3.2806,-3.2794,-3.2787,-3.2776,-3.2724,-3.2707,-3.2716,-3.2689,-3.2714,-3.2713,-3.2708,-3.2576,-3.2569,-3.2737,-3.2737,-3.2737,-3.2737,-3.2737,-3.2737,-3.307,-3.3092,-3.3057,-3.3067,-3.3037,-3.3037,-3.3026,-3.3008,-3.2984,-3.2979,-3.297,-3.2936,-3.2897,-3.2878,-3.2865,-3.285,-3.2848,-3.2882,-3.2858,-3.2736,-3.2717,-3.2699,-3.2691,-3.2882,-3.2882,-3.299,-3.2991,-3.2992]}]]